,,,PA_Meas_PMT16A,,PR_Meas_QMR101_102,,RH_Meas_QMH101,,SR_Meas_QMS101,,TA_Meas_QMH101,,GenWind,,GenWind,
date,time,status,PA,status,PR,status,RH,status,SR,status,TA,status,DirAvg,status,SpdAvg,
2012-08-16, 00:00:05,VALID,1009.3,VALID,0,VALID,104,VALID,0.112112,VALID,24.2573,VALID,174,VALID,0.392188,
2012-08-16, 00:01:05,VALID,1009.29,VALID,0,VALID,104,VALID,0,VALID,24.3371,VALID,187,VALID,0.00273437,
2012-08-16, 00:02:05,VALID,1009.3,VALID,0,VALID,104,VALID,0,VALID,24.415,VALID,184,VALID,0.0121094,
2012-08-16, 00:03:05,VALID,1009.3,VALID,0,VALID,104,VALID,0,VALID,24.493,VALID,184,VALID,0,
2012-08-16, 00:04:05,VALID,1009.3,VALID,0,VALID,104,VALID,0,VALID,24.532,VALID,186,VALID,0.177344,
2012-08-16, 00:05:05,VALID,1009.28,VALID,0,VALID,103.771,VALID,0.112112,VALID,24.5886,VALID,171,VALID,0.799219,
2012-08-16, 00:06:05,VALID,1009.26,VALID,0,VALID,103.268,VALID,0,VALID,24.686,VALID,190,VALID,0.2,
2012-08-16, 00:07:05,VALID,1009.29,VALID,0,VALID,102.673,VALID,0.112112,VALID,24.7464,VALID,179,VALID,0,
2012-08-16, 00:08:05,VALID,1009.28,VALID,0,VALID,102.322,VALID,0,VALID,24.8049,VALID,179,VALID,0.2875,
2012-08-16, 00:09:05,VALID,1009.29,VALID,0,VALID,101.834,VALID,0.112112,VALID,24.803,VALID,179,VALID,0,
2012-08-16, 00:10:05,VALID,1009.29,VALID,0,VALID,101.598,VALID,0,VALID,24.8244,VALID,179,VALID,0,
2012-08-16, 00:11:05,VALID,1009.28,VALID,0,VALID,101.468,VALID,0,VALID,24.8049,VALID,179,VALID,0,
2012-08-16, 00:12:05,VALID,1009.28,VALID,0,VALID,101.537,VALID,0.112112,VALID,24.8244,VALID,179,VALID,0,
2012-08-16, 00:13:05,VALID,1009.26,VALID,0,VALID,101.522,VALID,0.112112,VALID,24.8049,VALID,179,VALID,0,
2012-08-16, 00:14:05,VALID,1009.27,VALID,0,VALID,101.423,VALID,0.112112,VALID,24.7835,VALID,179,VALID,0,
2012-08-16, 00:15:05,VALID,1009.23,VALID,0,VALID,101.491,VALID,0.112112,VALID,24.764,VALID,179,VALID,0,
2012-08-16, 00:16:05,VALID,1009.22,VALID,0,VALID,101.484,VALID,0,VALID,24.7464,VALID,179,VALID,0,
2012-08-16, 00:17:05,VALID,1009.22,VALID,0,VALID,101.545,VALID,0,VALID,24.7269,VALID,179,VALID,0,
2012-08-16, 00:18:05,VALID,1009.21,VALID,0,VALID,101.75,VALID,0,VALID,24.7269,VALID,179,VALID,0,
2012-08-16, 00:19:05,VALID,1009.22,VALID,0,VALID,101.743,VALID,0,VALID,24.6879,VALID,179,VALID,0,
2012-08-16, 00:20:05,VALID,1009.2,VALID,0,VALID,101.766,VALID,0,VALID,24.6276,VALID,179,VALID,0,
2012-08-16, 00:21:05,VALID,1009.24,VALID,0,VALID,101.697,VALID,0,VALID,24.6099,VALID,179,VALID,0,
2012-08-16, 00:22:05,VALID,1009.24,VALID,0,VALID,101.85,VALID,0,VALID,24.5515,VALID,179,VALID,0,
2012-08-16, 00:23:05,VALID,1009.27,VALID,0,VALID,102.132,VALID,0.112112,VALID,24.4911,VALID,179,VALID,0,
2012-08-16, 00:24:05,VALID,1009.25,VALID,0,VALID,102.292,VALID,0,VALID,24.4735,VALID,179,VALID,0,
2012-08-16, 00:25:05,VALID,1009.28,VALID,0,VALID,102.071,VALID,0.112112,VALID,24.415,VALID,179,VALID,0,
2012-08-16, 00:26:05,VALID,1009.24,VALID,0,VALID,102.033,VALID,0,VALID,24.3371,VALID,179,VALID,0,
2012-08-16, 00:27:05,VALID,1009.26,VALID,0,VALID,102.231,VALID,0.112112,VALID,24.2591,VALID,179,VALID,0,
2012-08-16, 00:28:05,VALID,1009.24,VALID,0,VALID,102.444,VALID,0,VALID,24.1599,VALID,179,VALID,0,
2012-08-16, 00:29:05,VALID,1009.25,VALID,0,VALID,102.727,VALID,0,VALID,24.0819,VALID,179,VALID,0,
2012-08-16, 00:30:05,VALID,1009.29,VALID,0,VALID,103.169,VALID,0,VALID,24.0429,VALID,179,VALID,0,
2012-08-16, 00:31:05,VALID,1009.32,VALID,0,VALID,103.779,VALID,0,VALID,24.004,VALID,179,VALID,0,
2012-08-16, 00:32:05,VALID,1009.32,VALID,0,VALID,104,VALID,0,VALID,24.0058,VALID,179,VALID,0,
2012-08-16, 00:33:05,VALID,1009.34,VALID,0,VALID,104,VALID,0.112112,VALID,23.9455,VALID,179,VALID,0,
2012-08-16, 00:34:05,VALID,1009.31,VALID,0,VALID,104,VALID,0.112112,VALID,23.9065,VALID,179,VALID,0,
2012-08-16, 00:35:05,VALID,1009.32,VALID,0,VALID,104,VALID,0,VALID,23.8676,VALID,179,VALID,0,
2012-08-16, 00:36:05,VALID,1009.3,VALID,0,VALID,104,VALID,0,VALID,23.8694,VALID,179,VALID,0,
2012-08-16, 00:37:05,VALID,1009.31,VALID,0,VALID,104,VALID,0,VALID,23.8481,VALID,179,VALID,0,
2012-08-16, 00:38:05,VALID,1009.31,VALID,0,VALID,104,VALID,0.112112,VALID,23.7896,VALID,179,VALID,0,
2012-08-16, 00:39:05,VALID,1009.29,VALID,0,VALID,104,VALID,0.112112,VALID,23.7312,VALID,179,VALID,0,
2012-08-16, 00:40:05,VALID,1009.3,VALID,0,VALID,104,VALID,0.112112,VALID,23.7117,VALID,179,VALID,0,
2012-08-16, 00:41:05,VALID,1009.33,VALID,0,VALID,104,VALID,0.112112,VALID,23.6532,VALID,179,VALID,0,
2012-08-16, 00:42:05,VALID,1009.33,VALID,0,VALID,104,VALID,0,VALID,23.655,VALID,179,VALID,0,
2012-08-16, 00:43:05,VALID,1009.34,VALID,0,VALID,104,VALID,0,VALID,23.6356,VALID,179,VALID,0,
2012-08-16, 00:44:05,VALID,1009.33,VALID,0,VALID,104,VALID,0.112112,VALID,23.6161,VALID,179,VALID,0,
2012-08-16, 00:45:05,VALID,1009.36,VALID,0,VALID,104,VALID,0,VALID,23.5966,VALID,179,VALID,0,
2012-08-16, 00:46:05,VALID,1009.34,VALID,0,VALID,104,VALID,0,VALID,23.5966,VALID,266,VALID,0,
2012-08-16, 00:47:05,VALID,1009.31,VALID,0,VALID,104,VALID,0,VALID,23.6179,VALID,278,VALID,0,
2012-08-16, 00:48:05,VALID,1009.33,VALID,0,VALID,104,VALID,0,VALID,23.5771,VALID,278,VALID,0,
2012-08-16, 00:49:05,VALID,1009.29,VALID,0,VALID,104,VALID,0,VALID,23.5186,VALID,278,VALID,0,
2012-08-16, 00:50:05,VALID,1009.3,VALID,0,VALID,104,VALID,0,VALID,23.4797,VALID,278,VALID,0,
2012-08-16, 00:51:05,VALID,1009.3,VALID,0,VALID,104,VALID,0,VALID,23.4815,VALID,282,VALID,0,
2012-08-16, 00:52:05,VALID,1009.32,VALID,0,VALID,104,VALID,0,VALID,23.4407,VALID,293,VALID,0,
2012-08-16, 00:53:05,VALID,1009.28,VALID,0,VALID,104,VALID,0,VALID,23.4407,VALID,310,VALID,0.607813,
2012-08-16, 00:54:05,VALID,1009.26,VALID,0,VALID,104,VALID,0,VALID,23.4425,VALID,315,VALID,0.230859,
2012-08-16, 00:55:05,VALID,1009.26,VALID,0,VALID,104,VALID,0,VALID,23.4407,VALID,324,VALID,0.479297,
2012-08-16, 00:56:05,VALID,1009.27,VALID,0,VALID,104,VALID,0,VALID,23.4212,VALID,324,VALID,0.0480469,
2012-08-16, 00:57:05,VALID,1009.25,VALID,0,VALID,104,VALID,0,VALID,23.4017,VALID,324,VALID,0.314063,
2012-08-16, 00:58:05,VALID,1009.24,VALID,0,VALID,104,VALID,0,VALID,23.3823,VALID,324,VALID,0.669922,
2012-08-16, 00:59:05,VALID,1009.26,VALID,0,VALID,104,VALID,0.112112,VALID,23.3823,VALID,328,VALID,0.233984,
2012-08-16, 01:00:05,VALID,1009.23,VALID,0,VALID,104,VALID,0,VALID,23.3433,VALID,332,VALID,0.100391,
2012-08-16, 01:01:05,VALID,1009.24,VALID,0,VALID,104,VALID,0,VALID,23.3433,VALID,347,VALID,0.220313,
2012-08-16, 01:02:05,VALID,1009.23,VALID,0,VALID,104,VALID,0,VALID,23.3238,VALID,345,VALID,0.771875,
2012-08-16, 01:03:05,VALID,1009.23,VALID,0,VALID,104,VALID,0,VALID,23.3043,VALID,354,VALID,0.428125,
2012-08-16, 01:04:05,VALID,1009.21,VALID,0,VALID,104,VALID,0,VALID,23.3043,VALID,354,VALID,0.0167969,
2012-08-16, 01:05:05,VALID,1009.2,VALID,0,VALID,104,VALID,0,VALID,23.3043,VALID,354,VALID,0.00195313,
2012-08-16, 01:06:05,VALID,1009.22,VALID,0,VALID,104,VALID,0,VALID,23.3061,VALID,354,VALID,0,
2012-08-16, 01:07:05,VALID,1009.18,VALID,0,VALID,104,VALID,0,VALID,23.2866,VALID,354,VALID,0.00195313,
2012-08-16, 01:08:05,VALID,1009.18,VALID,0,VALID,104,VALID,0,VALID,23.2654,VALID,354,VALID,0,
2012-08-16, 01:09:05,VALID,1009.16,VALID,0,VALID,104,VALID,0,VALID,23.3061,VALID,354,VALID,0,
2012-08-16, 01:10:05,VALID,1009.13,VALID,0,VALID,104,VALID,0,VALID,23.3061,VALID,354,VALID,0,
2012-08-16, 01:11:05,VALID,1009.07,VALID,0,VALID,104,VALID,0,VALID,23.3061,VALID,354,VALID,0,
2012-08-16, 01:12:05,VALID,1009.06,VALID,0,VALID,104,VALID,0,VALID,23.2848,VALID,354,VALID,0,
2012-08-16, 01:13:05,VALID,1009.01,VALID,0,VALID,104,VALID,0,VALID,23.2459,VALID,354,VALID,0,
2012-08-16, 01:14:05,VALID,1009.01,VALID,0,VALID,104,VALID,0,VALID,23.2459,VALID,354,VALID,0,
2012-08-16, 01:15:05,VALID,1009,VALID,0,VALID,104,VALID,0,VALID,23.2246,VALID,354,VALID,0,
2012-08-16, 01:16:05,VALID,1008.99,VALID,0,VALID,104,VALID,0,VALID,23.2459,VALID,354,VALID,0,
2012-08-16, 01:17:05,VALID,1009,VALID,0,VALID,104,VALID,0.112112,VALID,23.2246,VALID,354,VALID,0,
2012-08-16, 01:18:05,VALID,1008.98,VALID,0,VALID,104,VALID,0.112112,VALID,23.2246,VALID,354,VALID,0,
2012-08-16, 01:19:05,VALID,1008.98,VALID,0,VALID,104,VALID,0.112112,VALID,23.2264,VALID,354,VALID,0,
2012-08-16, 01:20:05,VALID,1008.97,VALID,0,VALID,104,VALID,0.112112,VALID,23.1857,VALID,354,VALID,0,
2012-08-16, 01:21:05,VALID,1008.93,VALID,0,VALID,104,VALID,0.112112,VALID,23.1662,VALID,354,VALID,0,
2012-08-16, 01:22:05,VALID,1008.9,VALID,0,VALID,104,VALID,0,VALID,23.1272,VALID,354,VALID,0,
2012-08-16, 01:23:05,VALID,1008.88,VALID,0,VALID,104,VALID,0,VALID,23.0883,VALID,354,VALID,0,
2012-08-16, 01:24:05,VALID,1008.88,VALID,0,VALID,104,VALID,0.112112,VALID,23.09,VALID,354,VALID,0,
2012-08-16, 01:25:05,VALID,1008.88,VALID,0,VALID,104,VALID,0,VALID,23.0511,VALID,354,VALID,0,
2012-08-16, 01:26:05,VALID,1008.9,VALID,0,VALID,104,VALID,0,VALID,23.0511,VALID,354,VALID,0,
2012-08-16, 01:27:05,VALID,1008.93,VALID,0,VALID,104,VALID,0,VALID,23.0316,VALID,354,VALID,0,
2012-08-16, 01:28:05,VALID,1008.89,VALID,0,VALID,104,VALID,0,VALID,23.0705,VALID,354,VALID,0,
2012-08-16, 01:29:05,VALID,1008.88,VALID,0,VALID,104,VALID,0.112112,VALID,23.0883,VALID,354,VALID,0,
2012-08-16, 01:30:04,VALID,1008.87,VALID,0,VALID,104,VALID,0,VALID,23.129,VALID,354,VALID,0,
2012-08-16, 01:31:04,VALID,1008.84,VALID,0,VALID,104,VALID,0.112112,VALID,23.0883,VALID,354,VALID,0,
2012-08-16, 01:32:04,VALID,1008.81,VALID,0,VALID,104,VALID,0,VALID,23.1095,VALID,354,VALID,0,
2012-08-16, 01:33:04,VALID,1008.86,VALID,0,VALID,104,VALID,0.112112,VALID,23.09,VALID,354,VALID,0,
2012-08-16, 01:34:04,VALID,1008.82,VALID,0,VALID,104,VALID,0,VALID,23.0493,VALID,354,VALID,0,
2012-08-16, 01:35:04,VALID,1008.81,VALID,0,VALID,104,VALID,0.112112,VALID,23.0688,VALID,354,VALID,0,
2012-08-16, 01:36:04,VALID,1008.79,VALID,0,VALID,104,VALID,0.112112,VALID,23.0493,VALID,354,VALID,0,
2012-08-16, 01:37:04,VALID,1008.76,VALID,0,VALID,104,VALID,0.112112,VALID,23.0493,VALID,354,VALID,0,
2012-08-16, 01:38:04,VALID,1008.76,VALID,0,VALID,104,VALID,0.112112,VALID,23.0493,VALID,354,VALID,0.318359,
2012-08-16, 01:39:04,VALID,1008.76,VALID,0,VALID,104,VALID,0.112112,VALID,23.0298,VALID,354,VALID,0,
2012-08-16, 01:40:04,VALID,1008.74,VALID,0,VALID,104,VALID,0.112112,VALID,23.0298,VALID,354,VALID,0,
2012-08-16, 01:41:04,VALID,1008.77,VALID,0,VALID,104,VALID,0.112112,VALID,23.0298,VALID,354,VALID,0,
2012-08-16, 01:42:04,VALID,1008.77,VALID,0,VALID,104,VALID,0.112112,VALID,22.9909,VALID,354,VALID,0,
2012-08-16, 01:43:04,VALID,1008.77,VALID,0,VALID,104,VALID,0.112112,VALID,22.9519,VALID,354,VALID,0,
2012-08-16, 01:44:04,VALID,1008.77,VALID,0,VALID,104,VALID,0.112112,VALID,22.9129,VALID,354,VALID,0,
2012-08-16, 01:45:04,VALID,1008.75,VALID,0,VALID,104,VALID,0,VALID,22.8757,VALID,354,VALID,0,
2012-08-16, 01:46:04,VALID,1008.76,VALID,0,VALID,104,VALID,0,VALID,22.8757,VALID,354,VALID,0,
2012-08-16, 01:47:04,VALID,1008.75,VALID,0,VALID,104,VALID,0,VALID,22.8757,VALID,354,VALID,0,
2012-08-16, 01:48:04,VALID,1008.71,VALID,0,VALID,104,VALID,0,VALID,22.8368,VALID,354,VALID,0,
2012-08-16, 01:49:04,VALID,1008.7,VALID,0,VALID,104,VALID,0,VALID,22.8368,VALID,354,VALID,0,
2012-08-16, 01:50:04,VALID,1008.67,VALID,0,VALID,104,VALID,0,VALID,22.8368,VALID,354,VALID,0,
2012-08-16, 01:51:04,VALID,1008.65,VALID,0,VALID,104,VALID,0,VALID,22.8173,VALID,354,VALID,0,
2012-08-16, 01:52:04,VALID,1008.63,VALID,0,VALID,104,VALID,0,VALID,22.8368,VALID,354,VALID,0,
2012-08-16, 01:53:04,VALID,1008.61,VALID,0,VALID,104,VALID,0,VALID,22.8385,VALID,354,VALID,0,
2012-08-16, 01:54:04,VALID,1008.59,VALID,0,VALID,104,VALID,0,VALID,22.8385,VALID,354,VALID,0,
2012-08-16, 01:55:04,VALID,1008.53,VALID,0,VALID,104,VALID,0,VALID,22.8385,VALID,354,VALID,0,
2012-08-16, 01:56:04,VALID,1008.54,VALID,0,VALID,104,VALID,0,VALID,22.8385,VALID,354,VALID,0,
2012-08-16, 01:57:04,VALID,1008.52,VALID,0,VALID,104,VALID,0,VALID,22.7961,VALID,354,VALID,0,
2012-08-16, 01:58:04,VALID,1008.5,VALID,0,VALID,104,VALID,0,VALID,22.7978,VALID,354,VALID,0,
2012-08-16, 01:59:04,VALID,1008.52,VALID,0,VALID,104,VALID,0,VALID,22.7978,VALID,354,VALID,0,
2012-08-16, 02:00:04,VALID,1008.49,VALID,0,VALID,104,VALID,0,VALID,22.7783,VALID,354,VALID,0,
2012-08-16, 02:01:04,VALID,1008.49,VALID,0,VALID,104,VALID,0,VALID,22.7588,VALID,354,VALID,0,
2012-08-16, 02:02:04,VALID,1008.5,VALID,0,VALID,104,VALID,0,VALID,22.7394,VALID,354,VALID,0,
2012-08-16, 02:03:04,VALID,1008.51,VALID,0,VALID,104,VALID,0,VALID,22.7394,VALID,354,VALID,0,
2012-08-16, 02:04:04,VALID,1008.52,VALID,0,VALID,104,VALID,0,VALID,22.78,VALID,354,VALID,0,
2012-08-16, 02:05:04,VALID,1008.5,VALID,0,VALID,104,VALID,0,VALID,22.7783,VALID,354,VALID,0,
2012-08-16, 02:06:04,VALID,1008.51,VALID,0,VALID,104,VALID,0,VALID,22.7394,VALID,354,VALID,0,
2012-08-16, 02:07:04,VALID,1008.53,VALID,0,VALID,104,VALID,0,VALID,22.7606,VALID,354,VALID,0.169922,
2012-08-16, 02:08:04,VALID,1008.53,VALID,0,VALID,104,VALID,0,VALID,22.7606,VALID,354,VALID,0,
2012-08-16, 02:09:04,VALID,1008.54,VALID,0,VALID,104,VALID,0,VALID,22.6809,VALID,354,VALID,0,
2012-08-16, 02:10:04,VALID,1008.52,VALID,0,VALID,104,VALID,0,VALID,22.6614,VALID,354,VALID,0,
2012-08-16, 02:11:04,VALID,1008.55,VALID,0,VALID,104,VALID,0,VALID,22.7021,VALID,354,VALID,0,
2012-08-16, 02:12:04,VALID,1008.56,VALID,0,VALID,104,VALID,0,VALID,22.6826,VALID,354,VALID,0,
2012-08-16, 02:13:04,VALID,1008.58,VALID,0,VALID,104,VALID,0,VALID,22.642,VALID,354,VALID,0,
2012-08-16, 02:14:04,VALID,1008.58,VALID,0,VALID,104,VALID,0,VALID,22.642,VALID,354,VALID,0,
2012-08-16, 02:15:04,VALID,1008.59,VALID,0,VALID,104,VALID,0,VALID,22.6826,VALID,354,VALID,0,
2012-08-16, 02:16:04,VALID,1008.61,VALID,0,VALID,104,VALID,0,VALID,22.642,VALID,354,VALID,0,
2012-08-16, 02:17:04,VALID,1008.6,VALID,0,VALID,104,VALID,0,VALID,22.6225,VALID,354,VALID,0,
2012-08-16, 02:18:04,VALID,1008.56,VALID,0,VALID,104,VALID,0,VALID,22.6225,VALID,354,VALID,0,
2012-08-16, 02:19:04,VALID,1008.57,VALID,0,VALID,104,VALID,0,VALID,22.642,VALID,354,VALID,0,
2012-08-16, 02:20:04,VALID,1008.55,VALID,0,VALID,104,VALID,0,VALID,22.642,VALID,354,VALID,0,
2012-08-16, 02:21:04,VALID,1008.55,VALID,0,VALID,104,VALID,0,VALID,22.642,VALID,354,VALID,0,
2012-08-16, 02:22:04,VALID,1008.53,VALID,0,VALID,104,VALID,0,VALID,22.6437,VALID,354,VALID,0,
2012-08-16, 02:23:04,VALID,1008.53,VALID,0,VALID,104,VALID,0,VALID,22.6437,VALID,354,VALID,0,
2012-08-16, 02:24:04,VALID,1008.6,VALID,0,VALID,104,VALID,0,VALID,22.6225,VALID,354,VALID,0,
2012-08-16, 02:25:04,VALID,1008.56,VALID,0,VALID,104,VALID,0,VALID,22.6437,VALID,354,VALID,0,
2012-08-16, 02:26:04,VALID,1008.56,VALID,0,VALID,104,VALID,0,VALID,22.6437,VALID,354,VALID,0,
2012-08-16, 02:27:04,VALID,1008.58,VALID,0,VALID,104,VALID,0,VALID,22.603,VALID,354,VALID,0,
2012-08-16, 02:28:04,VALID,1008.58,VALID,0,VALID,104,VALID,0,VALID,22.6047,VALID,354,VALID,0,
2012-08-16, 02:29:04,VALID,1008.56,VALID,0,VALID,104,VALID,0,VALID,22.5852,VALID,354,VALID,0,
2012-08-16, 02:30:04,VALID,1008.55,VALID,0,VALID,104,VALID,0,VALID,22.5623,VALID,354,VALID,0,
2012-08-16, 02:31:04,VALID,1008.54,VALID,0,VALID,104,VALID,0,VALID,22.5835,VALID,354,VALID,0,
2012-08-16, 02:32:04,VALID,1008.54,VALID,0,VALID,104,VALID,0,VALID,22.5835,VALID,354,VALID,0,
2012-08-16, 02:33:04,VALID,1008.55,VALID,0,VALID,104,VALID,0,VALID,22.5429,VALID,354,VALID,0,
2012-08-16, 02:34:04,VALID,1008.51,VALID,0,VALID,104,VALID,0,VALID,22.5234,VALID,354,VALID,0,
2012-08-16, 02:35:04,VALID,1008.51,VALID,0,VALID,104,VALID,0,VALID,22.5835,VALID,354,VALID,0,
2012-08-16, 02:36:04,VALID,1008.52,VALID,0,VALID,104,VALID,0.112112,VALID,22.5818,VALID,354,VALID,0,
2012-08-16, 02:37:04,VALID,1008.51,VALID,0,VALID,104,VALID,0,VALID,22.5835,VALID,354,VALID,0,
2012-08-16, 02:38:04,VALID,1008.47,VALID,0,VALID,104,VALID,0.112112,VALID,22.5446,VALID,354,VALID,0,
2012-08-16, 02:39:04,VALID,1008.45,VALID,0,VALID,104,VALID,0,VALID,22.5251,VALID,354,VALID,0,
2012-08-16, 02:40:04,VALID,1008.42,VALID,0,VALID,104,VALID,0,VALID,22.5446,VALID,354,VALID,0,
2012-08-16, 02:41:04,VALID,1008.4,VALID,0,VALID,104,VALID,0.112112,VALID,22.5234,VALID,354,VALID,0,
2012-08-16, 02:42:04,VALID,1008.36,VALID,0,VALID,104,VALID,0,VALID,22.564,VALID,354,VALID,0,
2012-08-16, 02:43:04,VALID,1008.39,VALID,0,VALID,104,VALID,0,VALID,22.5429,VALID,354,VALID,0,
2012-08-16, 02:44:04,VALID,1008.38,VALID,0,VALID,104,VALID,0.112112,VALID,22.5446,VALID,354,VALID,0,
2012-08-16, 02:45:04,VALID,1008.37,VALID,0,VALID,104,VALID,0,VALID,22.5251,VALID,354,VALID,0,
2012-08-16, 02:46:04,VALID,1008.39,VALID,0,VALID,104,VALID,0,VALID,22.4844,VALID,354,VALID,0,
2012-08-16, 02:47:04,VALID,1008.37,VALID,0,VALID,104,VALID,0.112112,VALID,22.4861,VALID,354,VALID,0,
2012-08-16, 02:48:04,VALID,1008.4,VALID,0,VALID,104,VALID,0.112112,VALID,22.4861,VALID,354,VALID,0,
2012-08-16, 02:49:04,VALID,1008.42,VALID,0,VALID,104,VALID,0,VALID,22.5039,VALID,354,VALID,0,
2012-08-16, 02:50:04,VALID,1008.43,VALID,0,VALID,104,VALID,0,VALID,22.5251,VALID,354,VALID,0,
2012-08-16, 02:51:04,VALID,1008.44,VALID,0,VALID,104,VALID,0.112112,VALID,22.5251,VALID,354,VALID,0,
2012-08-16, 02:52:04,VALID,1008.47,VALID,0,VALID,104,VALID,0,VALID,22.5039,VALID,354,VALID,0,
2012-08-16, 02:53:04,VALID,1008.48,VALID,0,VALID,104,VALID,0,VALID,22.5429,VALID,354,VALID,0,
2012-08-16, 02:54:04,VALID,1008.48,VALID,0,VALID,104,VALID,0.112112,VALID,22.5623,VALID,354,VALID,0,
2012-08-16, 02:55:04,VALID,1008.46,VALID,0,VALID,104,VALID,0.112112,VALID,22.5623,VALID,354,VALID,0,
2012-08-16, 02:56:04,VALID,1008.46,VALID,0,VALID,104,VALID,0,VALID,22.564,VALID,354,VALID,0,
2012-08-16, 02:57:04,VALID,1008.47,VALID,0,VALID,104,VALID,0.112112,VALID,22.5429,VALID,354,VALID,0,
2012-08-16, 02:58:04,VALID,1008.48,VALID,0,VALID,104,VALID,0,VALID,22.5429,VALID,354,VALID,0,
2012-08-16, 02:59:04,VALID,1008.47,VALID,0,VALID,104,VALID,0.112112,VALID,22.5429,VALID,354,VALID,0,
2012-08-16, 03:00:04,VALID,1008.46,VALID,0,VALID,104,VALID,0,VALID,22.564,VALID,354,VALID,0,
2012-08-16, 03:01:04,VALID,1008.45,VALID,0,VALID,104,VALID,0,VALID,22.5463,VALID,354,VALID,0,
2012-08-16, 03:02:04,VALID,1008.41,VALID,0,VALID,104,VALID,0,VALID,22.5463,VALID,354,VALID,0,
2012-08-16, 03:03:04,VALID,1008.42,VALID,0,VALID,104,VALID,0,VALID,22.5251,VALID,354,VALID,0,
2012-08-16, 03:04:04,VALID,1008.38,VALID,0,VALID,104,VALID,0,VALID,22.4878,VALID,354,VALID,0,
2012-08-16, 03:05:04,VALID,1008.38,VALID,0,VALID,104,VALID,0,VALID,22.4277,VALID,354,VALID,0,
2012-08-16, 03:06:04,VALID,1008.39,VALID,0,VALID,104,VALID,0,VALID,22.4294,VALID,354,VALID,0,
2012-08-16, 03:07:04,VALID,1008.36,VALID,0,VALID,104,VALID,0,VALID,22.4082,VALID,354,VALID,0,
2012-08-16, 03:08:04,VALID,1008.34,VALID,0,VALID,104,VALID,0,VALID,22.4294,VALID,354,VALID,0,
2012-08-16, 03:09:04,VALID,1008.37,VALID,0,VALID,104,VALID,0,VALID,22.3887,VALID,354,VALID,0,
2012-08-16, 03:10:04,VALID,1008.35,VALID,0,VALID,104,VALID,0,VALID,22.371,VALID,354,VALID,0,
2012-08-16, 03:11:04,VALID,1008.37,VALID,0,VALID,104,VALID,0,VALID,22.332,VALID,354,VALID,0,
2012-08-16, 03:12:04,VALID,1008.39,VALID,0,VALID,104,VALID,0,VALID,22.3125,VALID,354,VALID,0,
2012-08-16, 03:13:04,VALID,1008.41,VALID,0,VALID,104,VALID,0,VALID,22.2914,VALID,354,VALID,0,
2012-08-16, 03:14:04,VALID,1008.37,VALID,0,VALID,104,VALID,0,VALID,22.2914,VALID,354,VALID,0,
2012-08-16, 03:15:04,VALID,1008.4,VALID,0,VALID,104,VALID,0,VALID,22.2897,VALID,354,VALID,0,
2012-08-16, 03:16:04,VALID,1008.37,VALID,0,VALID,104,VALID,0.112112,VALID,22.2719,VALID,354,VALID,0,
2012-08-16, 03:17:04,VALID,1008.37,VALID,0,VALID,104,VALID,0.112112,VALID,22.2719,VALID,354,VALID,0,
2012-08-16, 03:18:04,VALID,1008.35,VALID,0,VALID,104,VALID,0.112112,VALID,22.2312,VALID,354,VALID,0,
2012-08-16, 03:19:04,VALID,1008.36,VALID,0,VALID,104,VALID,0.112112,VALID,22.2702,VALID,354,VALID,0,
2012-08-16, 03:20:04,VALID,1008.38,VALID,0,VALID,104,VALID,0.112112,VALID,22.2719,VALID,354,VALID,0,
2012-08-16, 03:21:04,VALID,1008.37,VALID,0,VALID,104,VALID,0,VALID,22.2702,VALID,354,VALID,0,
2012-08-16, 03:22:04,VALID,1008.38,VALID,0,VALID,104,VALID,0,VALID,22.2719,VALID,354,VALID,0,
2012-08-16, 03:23:04,VALID,1008.35,VALID,0,VALID,104,VALID,0.112112,VALID,22.2719,VALID,354,VALID,0,
2012-08-16, 03:24:04,VALID,1008.37,VALID,0,VALID,104,VALID,0,VALID,22.3108,VALID,354,VALID,0,
2012-08-16, 03:25:04,VALID,1008.4,VALID,0,VALID,104,VALID,0.112112,VALID,22.3498,VALID,354,VALID,0,
2012-08-16, 03:26:04,VALID,1008.4,VALID,0,VALID,104,VALID,0.112112,VALID,22.3286,VALID,354,VALID,0,
2012-08-16, 03:27:04,VALID,1008.41,VALID,0,VALID,104,VALID,0,VALID,22.3091,VALID,354,VALID,0,
2012-08-16, 03:28:04,VALID,1008.39,VALID,0,VALID,104,VALID,0,VALID,22.3108,VALID,354,VALID,0,
2012-08-16, 03:29:04,VALID,1008.41,VALID,0,VALID,104,VALID,0.112112,VALID,22.2312,VALID,354,VALID,0,
2012-08-16, 03:30:04,VALID,1008.42,VALID,0,VALID,104,VALID,0,VALID,22.2329,VALID,354,VALID,0,
2012-08-16, 03:31:04,VALID,1008.44,VALID,0,VALID,104,VALID,0,VALID,22.2524,VALID,354,VALID,0,
2012-08-16, 03:32:04,VALID,1008.44,VALID,0,VALID,104,VALID,0,VALID,22.2524,VALID,354,VALID,0,
2012-08-16, 03:33:04,VALID,1008.45,VALID,0,VALID,104,VALID,0,VALID,22.2134,VALID,354,VALID,0,
2012-08-16, 03:34:04,VALID,1008.44,VALID,0,VALID,104,VALID,0,VALID,22.2151,VALID,354,VALID,0,
2012-08-16, 03:35:04,VALID,1008.47,VALID,0,VALID,104,VALID,0,VALID,22.1355,VALID,354,VALID,0,
2012-08-16, 03:36:04,VALID,1008.44,VALID,0,VALID,104,VALID,0,VALID,22.1161,VALID,354,VALID,0,
2012-08-16, 03:37:04,VALID,1008.44,VALID,0,VALID,104,VALID,0,VALID,22.1372,VALID,354,VALID,0,
2012-08-16, 03:38:04,VALID,1008.46,VALID,0,VALID,104,VALID,0,VALID,22.1161,VALID,354,VALID,0,
2012-08-16, 03:39:04,VALID,1008.44,VALID,0,VALID,104,VALID,0,VALID,22.1177,VALID,354,VALID,0,
2012-08-16, 03:40:04,VALID,1008.47,VALID,0,VALID,104,VALID,0,VALID,22.0966,VALID,354,VALID,0,
2012-08-16, 03:41:04,VALID,1008.48,VALID,0,VALID,104,VALID,0,VALID,22.0576,VALID,354,VALID,0,
2012-08-16, 03:42:04,VALID,1008.45,VALID,0,VALID,104,VALID,0,VALID,22.0382,VALID,354,VALID,0,
2012-08-16, 03:43:04,VALID,1008.45,VALID,0,VALID,104,VALID,0,VALID,22.0187,VALID,354,VALID,0,
2012-08-16, 03:44:04,VALID,1008.44,VALID,0,VALID,104,VALID,0,VALID,22.0187,VALID,354,VALID,0,
2012-08-16, 03:45:04,VALID,1008.42,VALID,0,VALID,104,VALID,0.112112,VALID,22.017,VALID,354,VALID,0,
2012-08-16, 03:46:04,VALID,1008.42,VALID,0,VALID,104,VALID,0.112112,VALID,22.056,VALID,354,VALID,0,
2012-08-16, 03:47:04,VALID,1008.41,VALID,0,VALID,104,VALID,0.112112,VALID,22.0771,VALID,354,VALID,0,
2012-08-16, 03:48:04,VALID,1008.45,VALID,0,VALID,104,VALID,0.112112,VALID,22.1161,VALID,354,VALID,0,
2012-08-16, 03:49:04,VALID,1008.42,VALID,0,VALID,104,VALID,0,VALID,22.0932,VALID,354,VALID,0,
2012-08-16, 03:50:04,VALID,1008.41,VALID,0,VALID,104,VALID,0.112112,VALID,22.1144,VALID,354,VALID,0,
2012-08-16, 03:51:04,VALID,1008.43,VALID,0,VALID,104,VALID,0,VALID,22.1161,VALID,354,VALID,0,
2012-08-16, 03:52:04,VALID,1008.42,VALID,0,VALID,104,VALID,0.112112,VALID,22.0949,VALID,354,VALID,0,
2012-08-16, 03:53:04,VALID,1008.41,VALID,0,VALID,104,VALID,0.112112,VALID,22.0754,VALID,354,VALID,0,
2012-08-16, 03:54:04,VALID,1008.44,VALID,0,VALID,104,VALID,0.112112,VALID,22.0754,VALID,354,VALID,0,
2012-08-16, 03:55:04,VALID,1008.42,VALID,0,VALID,104,VALID,0.112112,VALID,22.056,VALID,354,VALID,0,
2012-08-16, 03:56:04,VALID,1008.38,VALID,0,VALID,104,VALID,0,VALID,22.017,VALID,354,VALID,0,
2012-08-16, 03:57:04,VALID,1008.37,VALID,0,VALID,104,VALID,0.112112,VALID,21.9959,VALID,354,VALID,0,
2012-08-16, 03:58:04,VALID,1008.34,VALID,0,VALID,104,VALID,0.112112,VALID,22.017,VALID,354,VALID,0,
2012-08-16, 03:59:04,VALID,1008.32,VALID,0,VALID,104,VALID,0.112112,VALID,22.0365,VALID,354,VALID,0,
2012-08-16, 04:00:04,VALID,1008.32,VALID,0,VALID,104,VALID,0,VALID,22.0382,VALID,354,VALID,0,
2012-08-16, 04:01:04,VALID,1008.32,VALID,0,VALID,104,VALID,0.112112,VALID,21.9781,VALID,354,VALID,0,
2012-08-16, 04:02:04,VALID,1008.37,VALID,0,VALID,104,VALID,0,VALID,21.9781,VALID,354,VALID,0,